Weather History for EBBE - February, 2013

Change the Weather History Date:

Sunday, February 24, 2013

  Actual Average Record
Temperature  
Mean Temperature 30 °F -  
Max Temperature 32 °F 47 °F 57 °F (2008)
Min Temperature 28 °F 38 °F 28 °F (2001)
Degree Days  
Heating Degree Days 35    
Moisture  
Dew Point 29 °F    
Average Humidity 94    
Maximum Humidity 100    
Minimum Humidity 86    
Precipitation  
Precipitation 0.00 in - - ()
Sea Level Pressure  
Sea Level Pressure 30.03 in    
Wind  
Wind Speed 9 mph ()    
Max Wind Speed 13 mph    
Max Gust Speed -    
Visibility 3.0 miles    
Events Rain , Snow    
Averages and records for this station are not official NWS values.
T = Trace of Precipitation, MM = Missing Value Source: Averaged Metar Reports

Daily Weather History Graph

Daily Weather History Graph

Search for Another Location

Airport or City:

Trip Planner

Search our weather history database for the weather conditions in past years. The results will help you decide how hot, cold, wet, or windy it might be!

Date:

Astronomy

Feb. 24, 2013 Rise Set
Actual Time 7:35 AM CET 6:13 PM CET
Civil Twilight 7:02 AM CET 6:46 PM CET
Nautical Twilight 6:24 AM CET 7:25 PM CET
Astronomical Twilight 5:46 AM CET 8:03 PM CET
Moon 5:06 PM CET (2/24) 6:27 AM CET (2/24)
Length of Visible Light 11h 44m
Length of Day
10h 38m
Waxing Gibbous, 98% of the Moon is Illuminated
Feb 24
Waxing Gibbous
Feb 25
Full
Mar 4
Last Quarter
Mar 11
New
Mar 19
First Quarter

Hourly Weather History & Observations

Time (CET) Temp. Windchill Dew Point Humidity Pressure Visibility Wind Dir Wind Speed Gust Speed Precip Events Conditions
12:25 AM 28.4 °F 20.4 °F 24.8 °F 86% 30.04 in 3.7 mi North 8.1 mph - N/A Snow Light Snow Grains
12:29 AM 28.4 °F 19.7 °F 24.8 °F 86% 30.04 in - North 9.2 mph - N/A Snow Light Snow Grains
12:35 AM 28.4 °F 19.7 °F 24.8 °F 86% 30.01 in - North 9.2 mph - N/A Snow Light Snow
12:53 AM 28.4 °F 19.7 °F 26.6 °F 93% 30.01 in - North 9.2 mph - N/A Snow Light Snow Grains
12:59 AM 28.4 °F 19.7 °F 26.6 °F 93% 30.01 in 3.1 mi North 9.2 mph - N/A Snow Light Snow Grains
1:00 AM 28 °F - 26 °F 87% 30.06 in 2 mi North 8.9 mph - - Snow Light Snow
1:41 AM 28.4 °F 19.1 °F 26.6 °F 93% 30.01 in - North 10.4 mph - N/A Snow Light Snow Grains
1:47 AM 28.4 °F 19.7 °F 26.6 °F 93% 30.01 in 2.8 mi North 9.2 mph - N/A Snow Light Snow
1:57 AM 28.4 °F 19.1 °F 26.6 °F 93% 30.01 in - North 10.4 mph - N/A Snow Light Snow Grains
2:13 AM 28.4 °F 18.5 °F 26.6 °F 93% 30.01 in - North 11.5 mph - N/A Snow Light Snow
2:19 AM 28.4 °F 18.5 °F 26.6 °F 93% 30.01 in 3.1 mi North 11.5 mph - N/A Snow Light Snow Grains
2:25 AM 28.4 °F 18.5 °F 26.6 °F 93% 30.01 in 3.1 mi North 11.5 mph - N/A Snow Light Snow Grains
2:56 AM 28.4 °F 18.5 °F 26.6 °F 93% 30.01 in - North 11.5 mph - N/A Snow Light Snow
3:06 AM 28.4 °F 18.5 °F 28.4 °F 100% 30.01 in - North 11.5 mph - N/A Snow Light Snow Grains
3:19 AM 28.4 °F 18.5 °F 28.4 °F 100% 30.01 in - North 11.5 mph - N/A Snow Light Snow Grains
3:25 AM 28.4 °F 18.0 °F 26.6 °F 93% 30.01 in - North 12.7 mph - N/A Snow Light Snow Grains
3:55 AM 28.4 °F 18.5 °F 26.6 °F 93% 30.01 in - North 11.5 mph - N/A Snow Light Snow Grains
4:00 AM 29 °F - 28 °F 92% 30.03 in 2 mi North 11.2 mph - - Snow Snow Grains
4:01 AM 28.4 °F 18.5 °F 26.6 °F 93% 30.01 in - North 11.5 mph - N/A Snow Light Snow
4:07 AM 28.4 °F 18.5 °F 26.6 °F 93% 30.01 in - North 11.5 mph - N/A Snow Light Snow
4:13 AM 28.4 °F 18.5 °F 26.6 °F 93% 30.01 in - North 11.5 mph - N/A Snow Light Snow Grains
4:25 AM 28.4 °F 19.1 °F 28.4 °F 100% 30.01 in 1.7 mi North 10.4 mph - N/A Snow Light Snow Grains
4:28 AM 28.4 °F 18.5 °F 28.4 °F 100% 30.01 in 1.4 mi North 11.5 mph - N/A Snow Light Snow
4:37 AM 28.4 °F 19.1 °F 28.4 °F 100% 29.98 in 1.5 mi North 10.4 mph - N/A Snow Light Snow Grains
4:52 AM 28.4 °F 19.1 °F 28.4 °F 100% 29.98 in - North 10.4 mph - N/A Snow Light Snow
7:00 AM 29 °F - 28 °F 94% 30.02 in 2 mi North 11.2 mph - - Snow Light Snow
7:25 AM 28.4 °F 19.1 °F 28.4 °F 100% 29.98 in 1.5 mi North 10.4 mph - N/A Snow Light Snow
8:25 AM 28.4 °F 19.1 °F 28.4 °F 100% 30.01 in 1.6 mi North 10.4 mph - N/A Snow Light Snow
9:25 AM 30.2 °F 20.8 °F 28.4 °F 93% 30.01 in 1.8 mi North 11.5 mph - N/A Snow Light Snow
10:00 AM 29 °F - 29 °F 100% 30.04 in 2 mi North 11.2 mph - - Snow Light Snow
10:25 AM 30.2 °F 21.3 °F 28.4 °F 93% 30.01 in 1.7 mi North 10.4 mph - N/A Snow Light Snow
11:25 AM 30.2 °F 21.3 °F 30.2 °F 100% 30.01 in 1.2 mi North 10.4 mph - N/A Snow Light Snow
11:39 AM 30.2 °F 20.8 °F 30.2 °F 100% 30.01 in - North 11.5 mph - N/A Snow Light Snow
11:50 AM 30.2 °F 20.2 °F 28.4 °F 93% 30.01 in - North 12.7 mph - N/A Snow Light Snow Grains
11:57 AM 30.2 °F 20.2 °F 28.4 °F 93% 30.01 in - North 12.7 mph - N/A Snow Light Snow
12:06 PM 30.2 °F 20.8 °F 30.2 °F 100% 30.01 in - North 11.5 mph - N/A Snow Light Snow
12:14 PM 30.2 °F 21.3 °F 30.2 °F 100% 30.01 in - North 10.4 mph - N/A Snow Light Snow Grains
12:25 PM 30.2 °F 21.9 °F 30.2 °F 100% 30.01 in 3.1 mi North 9.2 mph - N/A Rain Light Freezing Rain
1:00 PM 31 °F - 29 °F 89% 30.05 in 6 mi North 11.2 mph - - Rain Light Freezing Rain
2:36 PM 32.0 °F 23.6 °F 28.4 °F 87% 30.01 in 6.2 mi North 10.4 mph - N/A   Overcast
3:06 PM 32.0 °F 23.6 °F 30.2 °F 93% 30.01 in 6.2 mi North 10.4 mph - N/A   Mostly Cloudy
3:25 PM 32.0 °F 24.2 °F 28.4 °F 87% 30.01 in 6.2 mi North 9.2 mph - N/A   Mostly Cloudy
4:00 PM 32 °F - 29 °F 86% 30.05 in 7 mi North 11.2 mph - -   Clear
4:25 PM 32.0 °F 23.6 °F 30.2 °F 93% 30.01 in 6.2 mi North 10.4 mph - N/A   Mostly Cloudy
4:46 PM 32.0 °F 24.2 °F 28.4 °F 87% 30.01 in 6.2 mi North 9.2 mph - N/A   Mostly Cloudy
4:52 PM 32.0 °F 24.2 °F 28.4 °F 87% 30.01 in 6.2 mi North 9.2 mph - N/A   Mostly Cloudy
5:02 PM 32.0 °F 23.6 °F 30.2 °F 93% 30.01 in 3.7 mi North 10.4 mph - N/A Snow Light Snow Grains
5:25 PM 32.0 °F 24.8 °F 30.2 °F 93% 30.01 in 2.5 mi North 8.1 mph - N/A Snow Light Snow Grains
5:28 PM 32.0 °F 24.8 °F 30.2 °F 93% 30.04 in - North 8.1 mph - N/A Snow Light Snow Grains
5:43 PM 32.0 °F 25.6 °F 30.2 °F 93% 30.04 in - North 6.9 mph - N/A Snow Light Snow Grains
6:07 PM 32.0 °F 25.6 °F 30.2 °F 93% 30.04 in 3.1 mi North 6.9 mph - N/A Snow Light Snow
6:21 PM 32.0 °F 25.6 °F 30.2 °F 93% 30.04 in 3.1 mi North 6.9 mph - N/A Snow Light Snow
6:25 PM 32.0 °F 24.8 °F 30.2 °F 93% 30.04 in 2.2 mi North 8.1 mph - N/A Snow Light Snow Grains
6:27 PM 32.0 °F 25.6 °F 30.2 °F 93% 30.04 in - North 6.9 mph - N/A Snow Light Snow Grains
6:59 PM 32.0 °F 24.8 °F 30.2 °F 93% 30.04 in 1.5 mi North 8.1 mph - N/A Snow Light Snow
7:00 PM 31 °F - 31 °F 97% 30.08 in 2 mi North 6.7 mph - - Snow Snow Grains
7:06 PM 32.0 °F 24.8 °F 30.2 °F 93% 30.04 in 1.2 mi North 8.1 mph - N/A Rain , Snow Light Rain
7:25 PM 32.0 °F 24.8 °F 30.2 °F 93% 30.04 in 1.5 mi North 8.1 mph - N/A Rain , Snow Light Rain
8:09 PM 30.2 °F 22.6 °F 30.2 °F 100% 30.06 in 1.6 mi North 8.1 mph - N/A Rain , Snow Light Freezing Rain
8:25 PM 30.2 °F 22.6 °F 30.2 °F 100% 30.06 in - North 8.1 mph - N/A Rain , Snow Light Freezing Rain
9:25 PM 30.2 °F 23.4 °F 30.2 °F 100% 30.06 in 1.7 mi North 6.9 mph - N/A Snow Light Snow
9:59 PM 30.2 °F 23.4 °F 30.2 °F 100% 30.06 in - North 6.9 mph - N/A Rain , Snow Light Freezing Rain
10:00 PM 31 °F - 31 °F 100% 30.11 in 2 mi North 6.7 mph - - Snow Light Snow
10:15 PM 30.2 °F 23.4 °F 30.2 °F 100% 30.06 in - North 6.9 mph - N/A Rain , Snow Light Freezing Rain
10:21 PM 32.0 °F 26.4 °F 30.2 °F 93% 30.09 in - North 5.8 mph - N/A Rain , Snow Light Rain
10:25 PM 32.0 °F 25.6 °F 30.2 °F 93% 30.09 in - North 6.9 mph - N/A Rain , Snow Light Freezing Rain
11:25 PM 32.0 °F 26.4 °F 30.2 °F 93% 30.09 in - NNE 5.8 mph - N/A Snow Light Snow Showers
11:34 PM 32.0 °F 25.6 °F 32.0 °F 100% 30.09 in - North 6.9 mph - N/A Snow Light Snow Showers